London-Corbin, KY

4:23 AM EST on December 11, 2019 (GMT -0500)
London-Corbin / McKee

Weather History for KLOZ - May, 2019

Change the Weather History Date:

Sunday, May 19, 2019

  Actual Average Record
Temperature  
Mean Temperature 73 °F 66 °F  
Max Temperature 84 °F 77 °F 90 °F (1962)
Min Temperature 62 °F 54 °F 32 °F (1976)
Degree Days  
Heating Degree Days 0 3  
Month to date heating degree days 44 73  
Since 1 July heating degree days 4024 4174  
Cooling Degree Days 8 3  
Month to date cooling degree days 57 39  
Year to date cooling degree days 69 65  
Growing Degree Days 22 (Base 50)    
Moisture  
Dew Point 62 °F    
Average Humidity 73    
Maximum Humidity 100    
Minimum Humidity 46    
Precipitation  
Precipitation 0.07 in 0.16 in 1.70 in (1981)
Sea Level Pressure  
Sea Level Pressure 29.93 in    
Wind  
Wind Speed 8 mph (SSW)    
Max Wind Speed 25 mph    
Max Gust Speed 40 mph    
Visibility 10 miles    
Events      
T = Trace of Precipitation, MM = Missing Value Source: NWS Daily Summary

Daily Weather History Graph

Daily Weather History Graph

Search for Another Location

Airport or City:

Astronomy

May. 19, 2019 Rise Set
Actual Time 6:25 AM EDT 8:40 PM EDT
Civil Twilight 5:55 AM EDT 9:10 PM EDT
Nautical Twilight 5:19 AM EDT 9:46 PM EDT
Astronomical Twilight 4:40 AM EDT 10:25 PM EDT
Moon 9:40 PM EDT (5/19) 7:09 AM EDT (5/19)
Length of Visible Light 15h 14m
Length of Day
14h 15m
Full, 99% of the Moon is Illuminated
May 19
Full
May 26
Last Quarter
Jun 3
New
Jun 10
First Quarter
Jun 17
Full

Hourly Weather History & Observations

Time (EDT) Temp. Heat Index Dew Point Humidity Pressure Visibility Wind Dir Wind Speed Gust Speed Precip Events Conditions
12:53 AM 66.9 °F - 64.0 °F 90% 29.95 in 10.0 mi Calm Calm - N/A   Clear
1:53 AM 66.9 °F - 64.0 °F 90% 29.95 in 10.0 mi Calm Calm - N/A   Clear
2:53 AM 64.9 °F - 63.0 °F 93% 29.93 in 10.0 mi Calm Calm - N/A   Clear
3:53 AM 66.0 °F - 62.1 °F 87% 29.93 in 10.0 mi Calm Calm - N/A   Clear
4:53 AM 64.0 °F - 62.1 °F 93% 29.94 in 10.0 mi Calm Calm - N/A   Clear
5:53 AM 63.0 °F - 61.0 °F 93% 29.94 in 10.0 mi SSE 3.5 mph - N/A   Clear
6:53 AM 62.1 °F - 62.1 °F 100% 29.95 in 10.0 mi SE 3.5 mph - N/A   Clear
7:53 AM 69.1 °F - 64.0 °F 84% 29.94 in 10.0 mi Variable 3.5 mph - N/A   Clear
8:53 AM 72.0 °F - 64.9 °F 78% 29.95 in 10.0 mi South 5.8 mph - N/A   Clear
9:53 AM 75.0 °F - 64.0 °F 69% 29.95 in 10.0 mi South 11.5 mph - N/A   Clear
10:53 AM 78.1 °F - 64.9 °F 64% 29.95 in 10.0 mi South 11.5 mph - N/A   Clear
11:53 AM 81.0 °F 82.7 °F 64.9 °F 58% 29.94 in 10.0 mi SSW 12.7 mph 21.9 mph N/A   Clear
12:53 PM 81.0 °F 81.6 °F 60.1 °F 49% 29.94 in 10.0 mi SW 15.0 mph 24.2 mph N/A   Mostly Cloudy
1:53 PM 82.0 °F 82.4 °F 60.1 °F 47% 29.93 in 10.0 mi SSW 17.3 mph 26.5 mph N/A   Clear
2:53 PM 82.9 °F 83.3 °F 61.0 °F 47% 29.92 in 10.0 mi SSW 15.0 mph 29.9 mph N/A   Clear
3:53 PM 82.0 °F 82.1 °F 59.0 °F 45% 29.90 in 10.0 mi SSW 15.0 mph 29.9 mph N/A   Clear
4:53 PM 82.9 °F 82.8 °F 59.0 °F 44% 29.87 in 10.0 mi SSW 13.8 mph 26.5 mph N/A   Clear
5:53 PM 82.9 °F 83.2 °F 60.1 °F 46% 29.88 in 10.0 mi SSW 16.1 mph 27.6 mph N/A   Clear
6:53 PM 81.0 °F 81.6 °F 60.1 °F 49% 29.88 in 10.0 mi SSW 12.7 mph 23.0 mph N/A   Overcast
7:53 PM 77.0 °F - 57.0 °F 50% 29.93 in 10.0 mi SSW 20.7 mph 35.7 mph 0.00 in   Overcast
8:53 PM 71.1 °F - 63.0 °F 75% 29.93 in 10.0 mi Calm Calm - 0.01 in   Overcast
9:53 PM 68.0 °F - 64.0 °F 87% 29.94 in 10.0 mi WSW 5.8 mph - 0.06 in   Overcast
10:53 PM 68.0 °F - 64.9 °F 90% 29.94 in 10.0 mi Calm Calm - N/A   Overcast
11:53 PM 66.9 °F - 66.0 °F 97% 29.94 in 10.0 mi Calm Calm - N/A   Overcast